When you browse on this site, cookies collect data to enhance your experience and personalize the content and advertising you see.
Visit our Privacy Policy to learn more. By continuing to use the site, you agree to this use of cookies and data.
  • In Denmark
  • List of Countries
  • For 7 days
  • Water Temperature
  • Weather Map
  • Weather Widgets
  • user-avatar
    Login

    Hourly Weather Korenec

    Today, 29 February, Saturday

    Time Temperature Precipitation Wind Pressure Humidity
    00:00 -2°C° 0 mm 3 mps 741 mmHg 87%
    01:00 -2°C° 0 mm 3 mps 741 mmHg 88%
    02:00 -2°C° 0 mm 3 mps 742 mmHg 89%
    03:00 -2°C° 0 mm 3 mps 742 mmHg 89%
    04:00 -2°C° 0 mm 3 mps 742 mmHg 89%
    05:00 -2°C° 0 mm 3 mps 742 mmHg 89%
    06:00 -2°C° 0 mm 3 mps 742 mmHg 87%
    07:00 -2°C° 0 mm 3 mps 742 mmHg 86%
    08:00 -3°C° 0 mm 4 mps 742 mmHg 84%
    09:00 -2°C° 0 mm 4 mps 742 mmHg 82%
    10:00 -1°C° 0 mm 4 mps 742 mmHg 79%
    11:00 -1°C° 0 mm 4 mps 742 mmHg 77%
    12:00 0°C° 0 mm 4 mps 742 mmHg 74%
    13:00 0°C° 0 mm 4 mps 743 mmHg 71%
    14:00 0°C° 0 mm 4 mps 743 mmHg 68%
    15:00 +1°C° 0 mm 3 mps 743 mmHg 69%
    16:00 +1°C° 0 mm 3 mps 743 mmHg 71%
    17:00 +2°C° 0 mm 2 mps 743 mmHg 72%
    18:00 +1°C° 0 mm 2 mps 743 mmHg 76%
    19:00 0°C° 0 mm 3 mps 743 mmHg 80%
    20:00 -1°C° 0 mm 3 mps 743 mmHg 85%
    21:00 -1°C° 0 mm 3 mps 743 mmHg 85%
    22:00 -1°C° 0 mm 3 mps 743 mmHg 86%
    23:00 -2°C° 0 mm 4 mps 743 mmHg 87%

    Tomorrow, 1 March, Sunday

    Time Temperature Precipitation Wind Pressure Humidity
    00:00 -2°C° 0 mm 4 mps 743 mmHg 85%
    01:00 -2°C° 0 mm 4 mps 743 mmHg 84%
    02:00 -2°C° 0 mm 5 mps 742 mmHg 82%
    03:00 -2°C° 0 mm 5 mps 742 mmHg 79%
    04:00 -1°C° 0 mm 5 mps 742 mmHg 76%
    05:00 -2°C° 0 mm 6 mps 741 mmHg 73%
    06:00 -2°C° 0 mm 6 mps 741 mmHg 73%
    07:00 -2°C° 0 mm 6 mps 741 mmHg 72%
    08:00 -2°C° 0 mm 6 mps 741 mmHg 72%
    09:00 -1°C° 0 mm 6 mps 741 mmHg 67%
    10:00 0°C° 0 mm 7 mps 741 mmHg 63%
    11:00 +2°C° 0 mm 7 mps 741 mmHg 59%
    12:00 +3°C° 0 mm 7 mps 741 mmHg 58%
    13:00 +3°C° 0 mm 6 mps 741 mmHg 57%
    14:00 +4°C° 0 mm 6 mps 741 mmHg 56%
    15:00 +3°C° 0 mm 6 mps 741 mmHg 59%
    16:00 +3°C° 0 mm 5 mps 740 mmHg 63%
    17:00 +3°C° 0 mm 4 mps 740 mmHg 66%
    18:00 +2°C° 0.1 mm 5 mps 740 mmHg 74%
    19:00 +1°C° 0.1 mm 5 mps 740 mmHg 82%
    20:00 +1°C° 0.1 mm 6 mps 741 mmHg 89%
    21:00 +1°C° 0.1 mm 5 mps 740 mmHg 87%
    22:00 +1°C° 0.1 mm 4 mps 740 mmHg 86%
    23:00 +1°C° 0.1 mm 4 mps 740 mmHg 84%

    Day after tomorrow, 2 March, Monday

    Time Temperature Precipitation Wind Pressure Humidity
    00:00 +1°C° 0 mm 4 mps 740 mmHg 83%
    01:00 +1°C° 0 mm 4 mps 740 mmHg 83%
    02:00 +2°C° 0 mm 3 mps 740 mmHg 83%
    03:00 +1°C° 0.1 mm 4 mps 740 mmHg 86%
    04:00 +1°C° 0.1 mm 4 mps 739 mmHg 90%
    05:00 +1°C° 0.1 mm 4 mps 739 mmHg 93%
    06:00 +2°C° 0 mm 3 mps 739 mmHg 94%
    07:00 +2°C° 0 mm 3 mps 739 mmHg 94%
    08:00 +3°C° 0 mm 3 mps 740 mmHg 94%
    09:00 +3°C° 0 mm 3 mps 740 mmHg 93%
    10:00 +3°C° 0 mm 3 mps 740 mmHg 92%
    11:00 +4°C° 0 mm 4 mps 740 mmHg 91%
    12:00 +3°C° 0.2 mm 4 mps 739 mmHg 91%
    13:00 +3°C° 0.2 mm 4 mps 739 mmHg 90%
    14:00 +2°C° 0.2 mm 5 mps 739 mmHg 89%
    15:00 +2°C° 0.2 mm 5 mps 739 mmHg 88%
    16:00 +2°C° 0.2 mm 5 mps 739 mmHg 86%
    17:00 +3°C° 0.2 mm 5 mps 738 mmHg 84%
    18:00 +3°C° 0 mm 5 mps 738 mmHg 86%
    19:00 +2°C° 0 mm 6 mps 738 mmHg 87%
    20:00 +2°C° 0 mm 6 mps 738 mmHg 88%
    21:00 +2°C° 0.3 mm 6 mps 737 mmHg 90%
    22:00 +2°C° 0.3 mm 6 mps 737 mmHg 92%
    23:00 +2°C° 0.3 mm 5 mps 736 mmHg 94%

    3 March, Tuesday

    Time Temperature Precipitation Wind Pressure Humidity
    00:00 +2°C° 0.8 mm 5 mps 736 mmHg 93%
    01:00 +2°C° 0.8 mm 5 mps 736 mmHg 93%
    02:00 +3°C° 0.8 mm 5 mps 735 mmHg 93%
    03:00 +4°C° 0.5 mm 4 mps 735 mmHg 93%
    04:00 +4°C° 0.5 mm 4 mps 736 mmHg 94%
    05:00 +5°C° 0.5 mm 4 mps 736 mmHg 94%
    06:00 +5°C° 0.2 mm 4 mps 737 mmHg 93%
    07:00 +5°C° 0.2 mm 4 mps 737 mmHg 92%
    08:00 +5°C° 0.2 mm 4 mps 738 mmHg 91%
    09:00 +5°C° 0 mm 4 mps 739 mmHg 86%
    10:00 +6°C° 0 mm 4 mps 740 mmHg 80%
    11:00 +6°C° 0 mm 5 mps 741 mmHg 75%
    12:00 +6°C° 0 mm 4 mps 741 mmHg 73%
    13:00 +7°C° 0 mm 4 mps 742 mmHg 71%
    14:00 +7°C° 0 mm 4 mps 743 mmHg 70%
    15:00 +8°C° 0 mm 3 mps 743 mmHg 71%
    16:00 +7°C° 0 mm 2 mps 743 mmHg 72%
    17:00 +8°C° 0 mm 1 mps 743 mmHg 74%
    18:00 +7°C° 0 mm 1 mps 743 mmHg 76%
    19:00 +7°C° 0 mm 1 mps 744 mmHg 78%
    20:00 +6°C° 0 mm 1 mps 744 mmHg 81%
    21:00 +5°C° 0 mm 2 mps 744 mmHg 81%
    22:00 +5°C° 0 mm 2 mps 744 mmHg 82%
    23:00 +5°C° 0 mm 2 mps 744 mmHg 83%

    4 March, Wednesday

    Time Temperature Precipitation Wind Pressure Humidity
    00:00 +5°C° 0 mm 2 mps 744 mmHg 83%
    01:00 +5°C° 0 mm 2 mps 744 mmHg 84%
    02:00 +4°C° 0 mm 3 mps 743 mmHg 84%
    03:00 +4°C° 0 mm 3 mps 743 mmHg 85%
    04:00 +4°C° 0 mm 3 mps 742 mmHg 86%
    05:00 +4°C° 0 mm 4 mps 742 mmHg 87%
    06:00 +4°C° 0.4 mm 4 mps 742 mmHg 89%
    07:00 +4°C° 0.4 mm 4 mps 741 mmHg 91%
    08:00 +4°C° 0.4 mm 4 mps 741 mmHg 93%
    09:00 +5°C° 0 mm 3 mps 741 mmHg 93%
    10:00 +5°C° 0 mm 3 mps 740 mmHg 93%
    11:00 +7°C° 0 mm 3 mps 740 mmHg 93%
    12:00 +7°C° 0 mm 3 mps 740 mmHg 94%
    13:00 +7°C° 0 mm 3 mps 740 mmHg 94%
    14:00 +7°C° 0 mm 3 mps 740 mmHg 94%
    15:00 +7°C° 0 mm 3 mps 739 mmHg 95%
    16:00 +7°C° 0 mm 3 mps 739 mmHg 95%
    17:00 +7°C° 0 mm 3 mps 739 mmHg 96%
    18:00 +8°C° 0 mm 3 mps 739 mmHg 95%
    19:00 +8°C° 0 mm 3 mps 738 mmHg 94%
    20:00 +8°C° 0 mm 3 mps 738 mmHg 93%
    21:00 +7°C° 0 mm 3 mps 738 mmHg 93%
    22:00 +7°C° 0 mm 2 mps 738 mmHg 93%
    23:00 +7°C° 0 mm 2 mps 737 mmHg 93%

    5 March, Thursday

    Time Temperature Precipitation Wind Pressure Humidity
    00:00 +7°C° 0 mm 3 mps 737 mmHg 93%
    01:00 +7°C° 0 mm 3 mps 736 mmHg 94%
    02:00 +7°C° 0 mm 3 mps 736 mmHg 94%
    03:00 +8°C° 0 mm 3 mps 736 mmHg 92%
    04:00 +8°C° 0 mm 3 mps 735 mmHg 89%
    05:00 +8°C° 0 mm 3 mps 735 mmHg 87%
    06:00 +7°C° 0 mm 4 mps 735 mmHg 86%
    07:00 +7°C° 0 mm 4 mps 734 mmHg 85%
    08:00 +7°C° 0 mm 5 mps 734 mmHg 85%
    09:00 +8°C° 0 mm 5 mps 734 mmHg 82%
    10:00 +8°C° 0 mm 5 mps 734 mmHg 79%
    11:00 +9°C° 0 mm 6 mps 734 mmHg 76%
    12:00 +9°C° 0 mm 5 mps 733 mmHg 76%
    13:00 +9°C° 0 mm 5 mps 733 mmHg 76%
    14:00 +10°C° 0 mm 5 mps 733 mmHg 77%
    15:00 +10°C° 0 mm 5 mps 733 mmHg 77%
    16:00 +10°C° 0 mm 5 mps 733 mmHg 77%
    17:00 +10°C° 0 mm 5 mps 733 mmHg 77%
    18:00 +9°C° 0 mm 5 mps 733 mmHg 80%
    19:00 +8°C° 0 mm 5 mps 733 mmHg 83%
    20:00 +7°C° 0 mm 5 mps 734 mmHg 86%
    21:00 +6°C° 0 mm 4 mps 734 mmHg 86%
    22:00 +6°C° 0 mm 4 mps 734 mmHg 86%
    23:00 +5°C° 0 mm 3 mps 735 mmHg 86%
    Show more